[[{"header":{"parameterUnit":"m.s-1","parameterCategory":1,"la1":30.2992,"la2":30.254,"lo1":-89.0895,"lo2":-89.0443,"dy":0.0025,"dx":0.0025,"nx":19,"ny":19,"refTime":"2026-04-19T03:00:00:Z","depth":0,"parameterNumber":2,"parameterNumberName":"U-component_of_WINDS"},"data":[0,0,0,-0.4282,-0.428,-0.4193,-0.4193,-0.412,-0.412,0,0,0,0,0,0,0,0,0,0,0,-0.4331,-0.4331,-0.4282,-0.428,-0.4193,-0.4193,-0.412,-0.412,0,0,0,0,0,0,0,0,0,0,0,-0.4331,-0.4331,-0.4331,-0.428,-0.4193,-0.4192,-0.412,-0.4172,0,0,0,0,0,0,0,0,0,0,-0.425,-0.4318,-0.4331,-0.4331,-0.428,-0.4193,-0.4192,-0.4174,-0.4169,-0.4176,0,-0.4188,0,-0.4153,-0.4117,-0.4117,0,0,0,-0.4263,-0.4323,-0.4278,-0.4331,-0.4279,-0.4194,-0.4228,-0.4171,-0.4165,-0.417,-0.4187,-0.4183,-0.4152,-0.4117,-0.4117,-0.4215,-0.4216,0,0,-0.4268,-0.4328,-0.4282,-0.4275,-0.4291,-0.4231,-0.4225,-0.4167,-0.419,-0.4186,-0.418,-0.4151,-0.4117,-0.4116,-0.4213,-0.4215,0,0,0,-0.4293,-0.4332,-0.4288,-0.4279,-0.4261,-0.4228,-0.4222,-0.4192,-0.4173,-0.4179,-0.415,-0.4117,-0.4116,-0.4212,-0.4214,-0.4336,0,0,0,-0.4295,-0.4346,-0.4291,-0.4327,-0.4263,-0.4225,-0.425,-0.4177,-0.4168,-0.415,-0.4116,-0.4116,-0.421,-0.4213,-0.4329,-0.4385,0,0,0,-0.4329,-0.435,-0.4345,-0.433,-0.4294,-0.4225,-0.4201,-0.4173,-0.4151,-0.4117,-0.4116,-0.4209,-0.4212,-0.4324,-0.4375,-0.4429,0,0,0,-0.4381,-0.4454,-0.4348,-0.4418,-0.4296,-0.43,-0.4201,-0.4201,-0.4186,-0.4116,-0.4211,-0.4214,-0.4322,-0.4369,-0.4424,-0.4488,-0.452,0,0,-0.4507,-0.4472,-0.4508,-0.441,-0.4449,-0.4309,-0.4365,-0.4295,-0.4236,-0.4225,-0.4227,-0.4332,-0.4374,-0.4428,-0.4672,-0.4698,0,0,0,-0.4568,-0.4595,-0.4592,-0.4581,-0.4529,-0.4489,-0.4404,-0.4378,-0.4365,-0.4243,-0.4362,-0.4386,-0.4415,-0.4444,-0.4466,-0.4488,-0.4228,-0.4228,-0.4228,-0.4834,-0.4755,-0.481,-0.4722,-0.4712,-0.4623,-0.4608,-0.4558,-0.4481,-0.4511,-0.4508,-0.4666,-0.4701,-0.4717,-0.4742,-0.4533,-0.4534,-0.4534,-0.4534,-0.5013,-0.504,-0.4935,-0.4952,-0.4869,-0.4882,-0.4799,-0.4745,-0.4746,-0.4661,-0.4683,-0.4601,-0.4748,-0.4765,-0.4543,-0.4541,-0.454,-0.454,-0.4539,-0.518,-0.518,-0.5146,-0.5122,-0.5112,-0.5019,-0.5025,-0.4947,-0.4875,-0.4897,-0.4887,-0.4885,-0.4875,-0.4897,-0.4897,-0.4898,-0.4898,-0.4899,-0.4899,-0.5369,-0.5327,-0.5341,-0.5292,-0.5275,-0.5243,-0.5153,-0.5135,-0.5094,-0.5038,-0.5037,-0.496,-0.4776,-0.4733,-0.4907,-0.4906,-0.4905,-0.4904,-0.4903,-0.5586,-0.5524,-0.5547,-0.553,-0.5466,-0.5462,-0.5362,-0.5331,-0.5304,-0.531,-0.5226,-0.5101,-0.506,-0.5042,-0.5007,-0.5241,-0.5241,-0.5241,-0.5241,-0.573,-0.57,-0.5706,-0.5685,-0.5654,-0.5566,-0.5596,-0.5527,-0.5447,-0.5426,-0.5379,-0.5324,-0.5309,-0.5277,-0.5254,-0.522,-0.5503,-0.5503,-0.5503,-0.586,-0.5824,-0.5864,-0.5784,-0.5727,-0.5682,-0.5708,-0.5688,-0.5583,-0.5512,-0.5408,-0.5397,-0.5307,-0.5281,-0.5213,-0.5178,-0.5113,0,0]},{"header":{"parameterUnit":"m.s-1","parameterCategory":1,"la1":30.2992,"la2":30.254,"lo1":-89.0895,"lo2":-89.0443,"dy":0.0025,"dx":0.0025,"nx":19,"ny":19,"refTime":"2026-04-19T03:00:00:Z","depth":0,"parameterNumber":3,"parameterNumberName":"V-component_of_WINDS"},"data":[0,0,0,-0.2163,-0.2164,-0.2182,-0.2182,-0.2207,-0.2207,0,0,0,0,0,0,0,0,0,0,0,-0.2158,-0.2158,-0.2163,-0.2164,-0.2181,-0.2182,-0.2207,-0.2207,0,0,0,0,0,0,0,0,0,0,0,-0.2158,-0.2158,-0.2158,-0.2164,-0.2181,-0.2182,-0.2206,-0.2192,0,0,0,0,0,0,0,0,0,0,-0.2175,-0.217,-0.2158,-0.2158,-0.2164,-0.2181,-0.2182,-0.2192,-0.2193,-0.2199,0,-0.2203,0,-0.2205,-0.2208,-0.2209,0,0,0,-0.2164,-0.2169,-0.2173,-0.2159,-0.2164,-0.2181,-0.2173,-0.2193,-0.2194,-0.2201,-0.2204,-0.2204,-0.2206,-0.2209,-0.2209,-0.2239,-0.2239,0,0,-0.2163,-0.2162,-0.2172,-0.2174,-0.2171,-0.2173,-0.2174,-0.2194,-0.2197,-0.2204,-0.2205,-0.2206,-0.2209,-0.2209,-0.2239,-0.2239,0,0,0,-0.216,-0.2161,-0.2165,-0.2173,-0.2176,-0.2173,-0.2175,-0.2196,-0.2197,-0.2205,-0.2206,-0.2209,-0.2209,-0.2239,-0.2239,-0.2244,0,0,0,-0.2159,-0.2159,-0.2165,-0.2164,-0.2176,-0.2186,-0.2176,-0.2196,-0.2198,-0.2206,-0.2209,-0.221,-0.2239,-0.2239,-0.2244,-0.2247,0,0,0,-0.2157,-0.2159,-0.2162,-0.2164,-0.2172,-0.2186,-0.2188,-0.2196,-0.2199,-0.2209,-0.221,-0.2239,-0.2239,-0.2244,-0.2247,-0.2255,0,0,0,-0.2154,-0.2166,-0.2162,-0.2176,-0.2171,-0.2189,-0.2188,-0.2201,-0.221,-0.2209,-0.2239,-0.2239,-0.2243,-0.2246,-0.2255,-0.2262,-0.2265,0,0,-0.2169,-0.2168,-0.2177,-0.2173,-0.2191,-0.2186,-0.2205,-0.2215,-0.2217,-0.2232,-0.2233,-0.2244,-0.2247,-0.2255,-0.2281,-0.2284,0,0,0,-0.2181,-0.2187,-0.2192,-0.22,-0.2207,-0.2214,-0.2221,-0.2225,-0.2237,-0.2224,-0.2249,-0.2251,-0.2256,-0.226,-0.2262,-0.2266,-0.2241,-0.2241,-0.224,-0.22,-0.2202,-0.2216,-0.222,-0.2229,-0.2235,-0.2243,-0.2249,-0.2249,-0.2255,-0.2259,-0.2275,-0.2279,-0.228,-0.2285,-0.2263,-0.2263,-0.2263,-0.2263,-0.2222,-0.2231,-0.2231,-0.2244,-0.2246,-0.2258,-0.2266,-0.2265,-0.2277,-0.2272,-0.2276,-0.227,-0.2283,-0.2287,-0.2264,-0.2264,-0.2264,-0.2264,-0.2263,-0.2235,-0.224,-0.2244,-0.2256,-0.2265,-0.227,-0.2281,-0.2283,-0.2285,-0.2289,-0.2294,-0.2294,-0.2295,-0.2291,-0.2292,-0.2292,-0.2292,-0.2292,-0.2292,-0.2247,-0.2251,-0.226,-0.2269,-0.2275,-0.2283,-0.229,-0.2296,-0.2303,-0.2304,-0.2304,-0.2304,-0.2283,-0.2278,-0.2293,-0.2292,-0.2292,-0.2292,-0.2292,-0.2269,-0.2264,-0.2278,-0.2284,-0.2294,-0.2304,-0.2306,-0.2319,-0.2324,-0.233,-0.2328,-0.2313,-0.2313,-0.2311,-0.2307,-0.2328,-0.2328,-0.2328,-0.2328,-0.228,-0.228,-0.2294,-0.2303,-0.2312,-0.2316,-0.2332,-0.2339,-0.2345,-0.2348,-0.2346,-0.234,-0.2339,-0.2339,-0.2337,-0.2333,-0.236,-0.236,-0.236,-0.2294,-0.2295,-0.2308,-0.2312,-0.2321,-0.2329,-0.2345,-0.2356,-0.2362,-0.2362,-0.2351,-0.235,-0.2342,-0.2339,-0.2338,-0.2335,-0.2328,0,0]}]]